Stations météo

Publicité
Greifswald, Allemagne (10184): Température de l'air & dewpoint: 14.07.2018 14:00:00 - 20.07.2018 14:00:00 (CEST)Greifswald, Allemagne (10184): Température de l'air 5cm & Température de l'air -5cm: 14.07.2018 14:00:00 - 20.07.2018 14:00:00 (CEST)Greifswald, Allemagne (10184): Température de l'air -20cm & Température de l'air -100cm: 14.07.2018 14:00:00 - 20.07.2018 14:00:00 (CEST)Greifswald, Allemagne (10184): Vitesse du vent & gusts: 14.07.2018 14:00:00 - 20.07.2018 14:00:00 (CEST)Greifswald, Allemagne (10184): Direction du vent: 14.07.2018 14:00:00 - 20.07.2018 14:00:00 (CEST)Greifswald, Allemagne (10184): reduced air pressure: 14.07.2018 14:00:00 - 20.07.2018 14:00:00 (CEST)Greifswald, Allemagne (10184): visibility: 14.07.2018 14:00:00 - 20.07.2018 14:00:00 (CEST)Greifswald, Allemagne (10184): Ensoleillement: 14.07.2018 14:00:00 - 20.07.2018 14:00:00 (CEST)Greifswald, Allemagne (10184): Quantités de précipitations: 14.07.2018 14:00:00 - 20.07.2018 14:00:00 (CEST)
Date & Time tt [°C] td [°C] tt 5cm [°C] tt -5cm [°C] tt -20cm [°C] tt -100cm [°C] ff [km/h] ff [knt] fx [km/h] fx [knt] dd ppp [hPa] vv [km] sd [min] rr [mm]
20.07.2018 14:00:00 23,2 10,0 29,1 31,7 22,8 18,8 13 7 27 15 W 1014,5 25 57 0,0
20.07.2018 13:00:00 22,5 10,7 26,3 29,1 21,7 18,8 13 7 26 14 WNW 1014,7 30 51 0,0
20.07.2018 12:00:00 21,8 11,3 27,3 26,5 20,9 18,8 11 6 29 16 NW 1015,0 40 56 0,0
20.07.2018 11:00:00 21,1 10,2 24,9 23,5 20,2 18,8 14 8 30 16 W 1015,1 25 53 0,0
20.07.2018 10:00:00 20,4 12,7 23,5 20,8 19,7 18,7 14 8 25 13 WNW 1015,2 30 48 0,0
20.07.2018 09:00:00 19,2 14,6 21,9 19,0 19,5 18,7 14 8 22 12 W 1015,3 45 60 0,0
20.07.2018 08:00:00 18,0 14,2 19,8 17,6 19,5 18,7 9 5 16 9 W 1015,3 25 60 0,0
20.07.2018 07:00:00 15,5 12,5 16,1 16,3 19,8 18,7 9 5 16 9 W 1015,3 18 60 0,0
20.07.2018 06:00:00 13,8 11,8 12,8 16,0 20,2 18,7 8 4 11 6 WSW 1015,2 22 9 0,0
20.07.2018 05:00:00 13,7 11,5 12,4 16,3 20,6 18,7 8 5 13 7 WSW 1015,3 21 0 0,0
20.07.2018 04:00:00 14,1 11,5 12,5 16,9 21,1 18,7 8 5 14 7 WSW 1015,5 23 0 0,0
20.07.2018 03:00:00 14,5 11,2 12,7 17,4 21,6 18,7 8 4 12 7 WSW 1015,5 23 0 0,0
20.07.2018 02:00:00 14,8 10,9 12,3 18,2 22,2 18,7 7 4 11 6 WSW 1015,8 30 0 0,0
20.07.2018 01:00:00 15,7 10,7 13,1 19,0 22,8 18,7 6 4 12 7 WSW 1016,0 32 0 0,0
20.07.2018 00:00:00 16,7 10,1 14,0 19,9 23,4 18,7 9 5 15 8 W 1016,2 36 0 0,0
19.07.2018 23:00:00 18,1 9,5 15,5 21,1 24,0 18,7 10 6 16 9 W 1016,3 43 0 0,0
19.07.2018 22:00:00 19,5 9,9 17,1 22,8 24,6 18,7 10 5 16 9 W 1016,3 43 2 0,0
19.07.2018 21:00:00 20,7 10,7 19,0 24,9 25,0 18,7 10 5 22 12 WNW 1016,4 41 56 0,0
19.07.2018 20:00:00 22,4 9,7 22,2 27,4 25,2 18,7 18 10 27 15 WNW 1016,2 35 60 0,0
19.07.2018 19:00:00 23,0 11,8 24,1 29,3 25,0 18,7 16 9 29 16 NW 1016,2 32 60 0,0
19.07.2018 18:00:00 23,4 11,6 25,8 30,3 24,6 18,7 16 9 35 19 NW 1016,3 45 60 0,0
19.07.2018 17:00:00 23,7 10,6 25,7 30,8 23,9 18,7 19 11 36 20 WNW 1016,5 48 60 0,0
19.07.2018 16:00:00 24,0 9,5 27,0 30,3 23,1 18,7 24 13 39 21 WNW 1016,8 45 60 0,0
19.07.2018 15:00:00 23,1 9,9 25,0 28,8 22,3 18,7 22 12 39 21 NW 1016,8 45 50 0,0
19.07.2018 14:00:00 22,7 10,2 25,4 25,8 21,7 18,7 23 12 36 19 NNW 1016,9 45 28 0,0
19.07.2018 13:00:00 22,5 10,9 26,1 24,8 21,2 18,7 19 10 42 23 NNW 1016,9 48 60 0,0
19.07.2018 12:00:00 21,0 10,2 24,0 23,0 20,8 18,7 26 14 42 23 NW 1016,9 48 60 0,0
19.07.2018 11:00:00 20,6 13,7 23,0 21,8 20,5 18,7 21 12 37 20 NW 1016,7 45 30 0,0
19.07.2018 10:00:00 19,3 15,2 20,2 21,2 20,2 18,7 22 12 36 20 NW 1016,6 30 15 0,0
19.07.2018 09:00:00 18,5 15,9 18,2 19,4 20,3 18,7 16 9 28 15 NW 1016,4 26 0 0,0
19.07.2018 08:00:00 18,2 16,4 17,6 19,1 20,3 18,7 13 7 22 12 NW 1016,1 22 0 0,0
19.07.2018 07:00:00 18,2 17,0 17,7 19,0 20,5 18,7 12 7 24 13 NW 1015,8 14 0 0,0
19.07.2018 06:00:00 18,2 17,3 17,7 19,1 20,6 18,7 14 8 33 18 NW 1015,5 4,5 0 0,1
19.07.2018 05:00:00 18,5 17,4 17,9 19,3 20,7 18,7 18 10 30 16 NNW 1015,4 5 0 0,5
19.07.2018 04:00:00 18,7 17,9 18,3 19,3 20,9 18,7 13 7 27 15 NNW 1015,2 3,3 0 0,5
19.07.2018 03:00:00 18,6 17,8 18,2 19,4 21,0 18,7 16 8 28 15 NNW 1015,2 1,7 0 0,4
19.07.2018 02:00:00 19,4 17,6 19,0 19,3 21,3 18,7 11 6 22 12 NNW 1015,0 14 0 0,0
19.07.2018 01:00:00 18,4 16,0 17,2 19,1 21,6 18,7 10 6 16 8 WNW 1014,9 14 0 0,0
19.07.2018 00:00:00 19,1 15,7 18,0 19,5 22,0 18,7 11 6 18 10 W 1014,7 16 0 0,0
18.07.2018 23:00:00 19,7 15,2 18,5 20,2 22,3 18,7 12 7 18 10 W 1014,5 24 0 0,0
18.07.2018 22:00:00 20,6 15,3 19,1 21,0 22,7 18,7 11 6 21 11 W 1014,5 25 0 0,0
18.07.2018 21:00:00 21,6 15,6 20,4 22,0 23,0 18,7 15 8 28 15 W 1014,5 21 0 0,0
18.07.2018 20:00:00 22,4 15,9 21,6 23,1 23,2 18,7 19 10 32 18 WNW 1014,3 23 0 0,0
18.07.2018 19:00:00 23,0 16,3 23,1 24,5 23,2 18,7 18 10 37 20 WNW 1014,2 20 35 0,0
18.07.2018 18:00:00 23,5 16,5 24,5 25,4 23,0 18,7 27 15 38 21 WNW 1014,1 15 26 0,0
18.07.2018 17:00:00 23,1 16,1 24,0 25,7 22,7 18,7 18 10 34 19 WNW 1014,2 17 32 0,0
18.07.2018 16:00:00 23,1 16,8 24,7 26,0 22,3 18,7 21 12 37 20 WNW 1014,1 15 31 0,0
18.07.2018 15:00:00 23,2 17,0 26,3 24,9 21,9 18,7 18 10 31 17 WNW 1014,1 13 17 0,0
18.07.2018 14:00:00 22,6 17,0 24,5 24,7 21,5 18,7 21 11 32 17 W 1014,1 16 30 0,0
18.07.2018 13:00:00 22,3 17,2 24,6 23,2 21,1 18,6 19 11 29 16 W 1013,9 10 12 0,0
18.07.2018 12:00:00 21,1 17,2 21,6 22,2 20,8 18,6 19 10 28 15 WNW 1013,9 10 0 0,0
18.07.2018 11:00:00 20,3 17,5 20,2 21,6 20,6 18,6 19 10 27 14 WNW 1013,8 6 0 0,0
18.07.2018 10:00:00 19,7 18,2 19,7 20,5 20,5 18,6 13 7 21 12 WNW 1013,6 6 0 0,1
18.07.2018 09:00:00 19,1 17,7 18,8 19,8 20,5 18,6 7 4 13 7 WNW 1013,5 10 0 0,0
18.07.2018 08:00:00 18,3 16,9 17,9 19,3 20,6 18,6 9 5 15 8 W 1013,2 10 0 0,1
18.07.2018 07:00:00 18,2 16,7 17,6 19,2 20,7 18,6 6 3 12 6 WNW 1012,9 10 0 0,2
18.07.2018 06:00:00 18,4 16,5 17,6 19,1 20,9 18,6 8 5 17 9 WNW 1012,4 15 0 0,0
18.07.2018 05:00:00 18,5 16,3 17,6 19,2 21,1 18,6 11 6 24 13 NW 1012,4 17 0 0,0
18.07.2018 04:00:00 18,8 17,1 17,8 19,4 21,3 18,6 13 7 22 12 NW 1012,2 14 0 0,0
18.07.2018 03:00:00 18,3 16,9 17,6 19,6 21,6 18,6 13 7 19 11 W 1012,4 12 0 0,0
18.07.2018 02:00:00 18,6 17,3 17,9 20,0 21,8 18,6 11 6 17 9 WNW 1012,6 11 0 0,5
18.07.2018 01:00:00 18,9 17,5 18,1 20,3 22,1 18,6 9 5 18 10 NW 1012,6 2,1 0 1,8
18.07.2018 00:00:00 19,0 17,7 18,4 20,7 22,3 18,5 9 5 13 7 NNE 1012,6 10 0 0,3
17.07.2018 23:00:00 19,1 17,1 18,3 21,0 22,6 18,5 9 5 14 8 WNW 1012,1 10 0 0,0
17.07.2018 22:00:00 18,9 17,3 18,2 21,5 22,9 18,5 4 2 9 5 NW 1012,2 13 0 0,0
17.07.2018 21:00:00 19,7 17,1 18,5 22,3 23,2 18,5 7 4 14 7 W 1012,1 16 0 0,0
17.07.2018 20:00:00 20,2 17,7 19,4 23,3 23,3 18,5 5 3 15 8 NW 1012,2 10 0 0,5
17.07.2018 19:00:00 21,7 17,5 21,6 24,1 23,4 18,5 2 1 11 6 NNW 1012,3 19 0 0,0
17.07.2018 18:00:00 21,9 17,7 21,4 24,7 23,4 18,5 7 4 21 12 NNE 1012,3 14 0 0,0
17.07.2018 17:00:00 22,9 17,2 24,0 25,2 23,3 18,5 14 8 26 14 NE 1012,5 21 0 0,0
17.07.2018 16:00:00 22,8 16,7 23,7 25,1 23,1 18,5 14 7 23 12 NNE 1012,4 23 0 0,0
17.07.2018 15:00:00 23,6 15,6 24,8 25,3 22,9 18,5 12 7 23 12 NNE 1012,5 24 0 0,0
17.07.2018 14:00:00 24,1 14,5 24,5 24,8 22,6 18,5 11 6 19 11 NNW 1012,4 25 0 0,0
17.07.2018 13:00:00 23,5 14,2 25,5 24,6 22,3 18,5 9 5 18 10 NW 1012,4 33 0 0,0
17.07.2018 12:00:00 22,2 15,8 24,0 23,9 22,0 18,5 11 6 18 10 NW 1012,7 18 0 0,0
17.07.2018 11:00:00 20,9 16,5 20,2 22,6 21,8 18,4 8 5 13 7 NW 1012,7 13 0 0,3
17.07.2018 10:00:00 21,1 18,1 20,5 22,1 21,7 18,4 6 3 9 5 N 1012,8 11 0 0,1
17.07.2018 09:00:00 20,2 17,7 20,2 21,2 21,6 18,4 5 3 10 5 WNW 1012,8 10 0 0,1
17.07.2018 08:00:00 18,8 16,7 18,7 20,4 21,8 18,4 5 3 8 4 W 1012,6 7 0 0,0
17.07.2018 07:00:00 17,9 16,5 17,4 19,9 22,0 18,4 6 3 9 5 W 1012,3 7 0 0,0
17.07.2018 06:00:00 16,9 16,2 16,2 19,7 22,3 18,4 4 2 5 3 W 1012,3 8 0 0,0
17.07.2018 05:00:00 16,6 16,0 15,4 20,0 22,7 18,4 3 2 6 3 E 1012,3 8 0 0,0
17.07.2018 04:00:00 17,0 16,1 15,2 20,5 23,1 18,4 5 3 8 4 W 1012,4 8 0 0,0
17.07.2018 03:00:00 17,9 16,4 16,3 21,2 23,5 18,4 5 3 8 4 W 1012,7 8 0 0,0
17.07.2018 02:00:00 18,1 17,4 17,1 21,8 23,9 18,4 3 2 5 3 NW 1013,2 8 0 0,0
17.07.2018 01:00:00 18,1 17,6 17,1 22,2 24,4 18,4 3 2 7 4 NW 1013,2 8 0 0,0
17.07.2018 00:00:00 18,0 17,5 16,9 22,9 25,0 18,4 4 2 4 2 WNW 1013,3 10 0 0,0
16.07.2018 23:00:00 18,5 17,8 17,0 24,1 25,6 18,4 2 1 10 6 NE 1013,6 15 0 0,0
16.07.2018 22:00:00 19,8 18,2 18,0 25,7 26,2 18,4 8 5 16 9 ENE 1013,5 25 0 0,0
16.07.2018 21:00:00 21,1 18,3 20,3 28,0 26,6 18,4 10 5 19 11 NE 1013,0 30 60 0,0
16.07.2018 20:00:00 23,4 16,8 24,1 30,4 26,7 18,4 12 6 21 11 ENE 1013,2 30 60 0,0
16.07.2018 19:00:00 24,2 15,8 26,0 32,1 26,6 18,4 11 6 22 12 NE 1013,2 40 60 0,0
16.07.2018 18:00:00 24,4 13,9 27,0 33,4 26,2 18,4 12 7 25 14 ENE 1013,3 40 60 0,0
16.07.2018 17:00:00 24,7 14,8 27,8 34,0 25,7 18,4 16 9 24 13 ENE 1013,6 40 60 0,0
16.07.2018 16:00:00 24,8 15,5 28,7 34,0 24,9 18,4 16 9 25 13 NE 1013,9 40 60 0,0
16.07.2018 15:00:00 24,6 17,0 29,3 33,5 23,9 18,4 15 8 21 11 NE 1014,4 35 60 0,0
16.07.2018 14:00:00 25,2 15,5 30,3 32,1 22,8 18,4 8 4 19 11 NNE 1014,6 35 60 0,0
16.07.2018 13:00:00 25,3 14,4 31,6 30,0 21,8 18,4 12 6 19 10 NE 1014,9 35 60 0,0
16.07.2018 12:00:00 24,7 13,7 30,3 27,5 20,8 18,4 8 4 16 8 NNE 1015,0 30 60 0,0
16.07.2018 11:00:00 23,6 14,8 29,0 24,6 20,0 18,4 6 3 16 9 NNE 1015,1 28 60 0,0
16.07.2018 10:00:00 22,1 16,8 26,1 21,9 19,4 18,4 8 4 15 8 N 1015,1 25 60 0,0
16.07.2018 09:00:00 20,2 15,2 23,8 19,5 19,1 18,4 10 5 16 9 NW 1015,3 18 60 0,0
16.07.2018 08:00:00 18,3 15,6 20,4 17,9 19,1 18,4 6 4 11 6 NW 1015,5 12 60 0,0
16.07.2018 07:00:00 15,6 13,5 14,7 16,5 19,3 18,4 4 2 6 4 W 1015,9 10 55 0,0
16.07.2018 06:00:00 14,0 12,8 12,9 16,1 19,6 18,4 3 2 6 4 SW 1016,1 8 13 0,0
16.07.2018 05:00:00 13,6 12,7 11,8 16,3 20,0 18,4 5 3 8 4 SW 1016,2 8 0 0,0
16.07.2018 04:00:00 13,8 12,6 11,6 16,8 20,4 18,4 2 1 6 3 SW 1016,2 9 0 0,0
16.07.2018 03:00:00 13,8 12,9 12,1 17,3 20,8 18,4 3 2 5 3 SW 1016,4 9 0 0,0
16.07.2018 02:00:00 14,2 13,4 12,2 17,9 21,3 18,4 3 2 5 3 SW 1016,5 10 0 0,0
16.07.2018 01:00:00 14,8 13,7 12,8 18,7 21,8 18,4 4 2 5 3 SW 1016,7 10 0 0,0
16.07.2018 00:00:00 15,2 14,0 13,3 19,5 22,3 18,4 2 1 4 2 SSW 1016,7 15 0 0,0
15.07.2018 23:00:00 15,9 14,2 13,7 20,6 22,8 18,4 0 0 7 4 N 1016,7 30 0 0,0
15.07.2018 22:00:00 17,7 14,2 14,9 22,0 23,3 18,4 6 3 9 5 WNW 1016,6 45 1 0,0
15.07.2018 21:00:00 20,0 13,9 18,3 23,8 23,7 18,4 6 3 18 10 NNW 1016,4 45 60 0,0
15.07.2018 20:00:00 21,3 13,5 22,1 26,1 23,8 18,5 10 6 23 12 NNW 1016,3 45 60 0,0
15.07.2018 19:00:00 21,9 13,8 24,1 27,8 23,7 18,5 14 8 26 14 N 1016,5 35 59 0,0
15.07.2018 18:00:00 22,4 13,8 25,1 29,1 23,3 18,5 15 8 23 13 NNW 1016,7 25 60 0,0
15.07.2018 17:00:00 21,5 13,1 25,3 29,5 22,7 18,5 13 7 24 13 NW 1017,1 30 60 0,0
15.07.2018 16:00:00 21,0 12,6 25,3 28,9 22,0 18,5 13 7 30 16 NW 1017,6 30 59 0,0
15.07.2018 15:00:00 20,1 13,9 25,4 27,8 21,3 18,5 18 10 29 15 N 1017,9 30 51 0,0
15.07.2018 14:00:00 20,4 14,3 24,7 26,7 20,5 18,5 18 10 31 17 N 1018,0 25 59 0,0
15.07.2018 13:00:00 20,4 14,4 25,3 24,8 19,7 18,5 21 11 34 18 N 1018,1 25 43 0,0
15.07.2018 12:00:00 20,9 12,5 24,4 23,9 18,9 18,5 13 7 26 14 N 1018,2 25 56 0,0
15.07.2018 11:00:00 20,1 11,7 22,2 21,2 18,3 18,5 12 7 24 13 NNW 1018,1 35 49 0,0
15.07.2018 10:00:00 19,0 12,8 20,7 18,6 18,0 18,5 13 7 23 12 NW 1018,0 37 13 0,0
15.07.2018 09:00:00 18,0 14,2 18,2 17,5 17,7 18,5 9 5 21 11 NW 1017,9 25 34 0,0
15.07.2018 08:00:00 17,0 14,0 19,4 16,3 17,6 18,5 10 5 16 8 W 1017,7 19 60 0,0
15.07.2018 07:00:00 14,4 11,9 15,6 14,8 17,8 18,5 8 4 13 7 W 1017,7 17 60 0,0
15.07.2018 06:00:00 12,4 11,2 11,5 14,2 18,0 18,5 8 4 11 6 WSW 1017,6 15 16 0,0
15.07.2018 05:00:00 12,2 10,9 11,0 14,4 18,4 18,5 6 3 13 7 WSW 1017,5 18 0 0,0
15.07.2018 04:00:00 12,5 10,9 11,2 14,7 18,7 18,5 9 5 15 8 WSW 1017,4 22 0 0,0
15.07.2018 03:00:00 12,8 10,9 11,3 15,2 19,1 18,5 8 4 11 6 SW 1017,6 25 0 0,0
15.07.2018 02:00:00 13,2 10,9 11,9 15,6 19,5 18,5 8 4 11 6 WSW 1017,8 30 0 0,0
15.07.2018 01:00:00 13,4 11,0 11,0 16,2 19,9 18,5 5 3 9 5 WSW 1018,0 30 0 0,0
15.07.2018 00:00:00 13,7 11,0 11,2 16,8 20,3 18,5 5 3 10 5 WSW 1018,1 25 0 0,0
14.07.2018 23:00:00 14,8 11,1 12,1 17,5 20,8 18,5 5 3 11 6 W 1018,2 40 0 0,0
14.07.2018 22:00:00 15,9 10,5 13,6 18,4 21,2 18,5 7 4 21 12 W 1018,4 45 2 0,0
14.07.2018 21:00:00 17,2 10,1 15,9 19,7 21,5 18,5 13 7 27 15 WNW 1018,2 50 59 0,0
14.07.2018 20:00:00 17,9 10,5 18,1 21,2 21,7 18,5 14 8 34 18 WNW 1018,1 50 39 0,0
14.07.2018 19:00:00 18,9 10,5 20,2 22,5 21,6 18,5 23 12 36 19 W 1018,3 40 53 0,0
14.07.2018 18:00:00 19,5 11,0 21,7 22,5 21,6 18,5 22 12 35 19 WNW 1018,1 32 25 0,0
14.07.2018 17:00:00 18,5 10,9 20,4 22,6 21,4 18,5 18 10 39 21 WNW 1018,5 38 6 0,0
14.07.2018 16:00:00 18,4 11,3 20,6 23,2 21,1 18,5 20 11 36 20 WNW 1018,9 30 18 0,0
14.07.2018 15:00:00 18,8 11,7 21,8 22,6 20,9 18,5 21 11 32 18 WNW 1019,1 32 5 0,0
14.07.2018 14:00:00 18,2 11,5 20,6 22,1 20,6 18,5 19 10 33 18 WNW 1019,5 38 0 0,0

tt = Température de l'air
td = dewpoint
tt 5cm = Température de l'air 5cm
tt -5cm = Température de l'air -5cm
tt -20cm = Température de l'air -20cm
tt -100cm = Température de l'air -100cm
ff = Vitesse du vent
fx = gusts
dd = Direction du vent
ppp = reduced air pressure
vv = visibility
sd = Ensoleillement
rr = Quantités de précipitations

stations d'obs. à proximité